Regional Weather Roundup
Issued by NWS

Home | Current Version | Previous Version | Text Only | Print | Product List | Glossary Off
Versions: 1 2 3 4 5 6 7 8 9 10 11 12 13 14 15 16 17 18 19 20 21 22 23 24 25 26 27 28 29 30 31 32 33 34 35 36 37 38 39 40 41 42 43 44 45 46 47 48 49 50

000
ASUS43 KMKX 021800
RWRWI

WISCONSIN REGIONAL WEATHER ROUNDUP
NATIONAL WEATHER SERVICE MILWAUKEE/SULLIVAN WI
100 PM CDT WED SEP 02 2015

NOTE: "FAIR" INDICATES FEW OR NO CLOUDS BELOW 12,000 FEET WITH NO
SIGNIFICANT WEATHER AND/OR OBSTRUCTIONS TO VISIBILITY.

WIZ001-002-006>008-014>016-023>028-021900-
NORTHWEST WISCONSIN

CITY           SKY/WX    TMP DP  RH WIND       PRES   REMARKS
SUPERIOR ARPT  CLOUDY    69  67  91 S8        29.95F
ASHLAND        CLOUDY    67  67 100 E7        30.01F
6HR MIN TEMP:  67; 6HR MAX TEMP:  70; 6HR PCP:  0.24;

HAYWARD        CLOUDY    70  66  87 NE7       30.00F
6HR MIN TEMP:  65; 6HR MAX TEMP:  70; 6HR PCP:  0.14;

SIREN          CLOUDY    69  66  90 E5        29.98S
CUMBERLAND     TSTM      64  63  94 E7        29.99R
RICE LAKE      TSTM      67  65  91 E6        30.00S
CHETEK         HVY RAIN N/A N/A N/A E9        29.98F
LADYSMITH      TSTM      67  65  93 CALM      30.03S
EAU CLAIRE     CLOUDY    71  68  90 NE8       29.96R
6HR MIN TEMP:  69; 6HR MAX TEMP:  73; 6HR PCP:  0.21;

MENOMONIE      CLOUDY    70  67  92 NE7       29.96R THUNDER
NEW RICHMOND   CLOUDY    66  65  98 NE6       29.96R
OSCEOLA        CLOUDY    67  67 100 E5        29.97S
$$

WIZ003>005-009-010-017-018-021900-
NORTH CENTRAL WISCONSIN

CITY           SKY/WX    TMP DP  RH WIND       PRES   REMARKS
MANITOWISH WTR CLOUDY    67  67 100 NE3       30.05F
ARBOR VITAE    LGT RAIN  67  64  91 CALM      30.04F
WOODRUFF       LGT RAIN  67  64  91 CALM      30.04F
RHINELANDER    LGT RAIN  69  66  90 NE5       30.04F
6HR MIN TEMP:  67; 6HR MAX TEMP:  72; 6HR PCP:  0.02;

EAGLE RIVER    RAIN      67  66  96 CALM      30.05R
LAND O LAKES   LGT RAIN  67  66  94 E3        30.06R
PHILLIPS       CLOUDY    67  65  94 E7        30.03F
6HR MIN TEMP:  65; 6HR MAX TEMP:  71; 6HR PCP:  0.11;

TOMAHAWK       LGT RAIN  68  65  90 N3        30.04R
MEDFORD        CLOUDY    69  68  97 N6        30.02S
MERRILL        MOSUNNY   75  71  86 NE6       30.01S
$$

WIZ029-030-035-036-043>047-021900-
CENTRAL WISCONSIN

CITY           SKY/WX    TMP DP  RH WIND       PRES   REMARKS
WAUSAU         MOSUNNY   80  69  69 E5        29.97F HX  83
6HR MIN TEMP:  71; 6HR MAX TEMP:  82;

MOSINEE        PTSUNNY   81  70  69 SW3       29.99F HX  84
MARSHFIELD     CLOUDY    82  68  62 E3        29.98F HX  85
6HR MIN TEMP:  70; 6HR MAX TEMP:  83;

STEVENS POINT  PTSUNNY   82  67  59 NW3       29.98F HX  85
WAUPACA        MOSUNNY   89  68  49 SW9       29.98S HX  92
WAUTOMA        NOT AVBL
WISC RAPIDS    FAIR      85  66  53 SW12      29.98F HX  87
6HR MIN TEMP:  71; 6HR MAX TEMP:  86;

CAMP DOUGLAS   NOT AVBL
$$

WIZ011>013-019>022-031-037>040-048>050-021900-
NORTHEAST WISCONSIN

CITY           SKY/WX    TMP DP  RH WIND       PRES   REMARKS
ANTIGO         PTSUNNY   77  68  73 CALM      30.02S
SHAWANO        PTSUNNY   85  73  66 S5        29.97F HX  92
OCONTO         PTSUNNY   87  74  65 W3        29.95R HX  95
STURGEON BAY   PTSUNNY  N/A N/A N/A MISG        N/A
6HR MIN TEMP:  72; 6HR MAX TEMP:  84;

GREEN BAY      PTSUNNY   86  72  62 SW9       29.97S HX  92
6HR MIN TEMP:  69; 6HR MAX TEMP:  87;

MANITOWOC      NOT AVBL
APPLETON       MOSUNNY   84  66  54 SW10      29.97F HX  86
CLINTONVILLE   MOSUNNY   86  68  54 SW3       29.97F HX  89
OSHKOSH        SUNNY     86  70  58 SW7       29.98F HX  90
6HR MIN TEMP:  72; 6HR MAX TEMP:  86;

$$

WIZ032>034-041-042-053>061-021900-
SOUTHWEST WISCONSIN

CITY           SKY/WX    TMP DP  RH WIND       PRES   REMARKS
LA CROSSE      FAIR      85  68  56 S10       29.93F HX  88
6HR MIN TEMP:  73; 6HR MAX TEMP:  85;

SPARTA         FAIR      83  65  54 SW7       29.96F HX  85
VIROQUA          N/A     81  67  63 S8        29.99F HX  83
BOSCOBEL       FAIR      86  69  56 S7        29.97F HX  90
6HR MIN TEMP:  65; 6HR MAX TEMP:  86;

PRAIRIE DU CHI FAIR      82  65  58 S8        29.97F HX  83
PLATTEVILLE    FAIR      79  71  78 SW6       30.01S HX  82
$$

WIZ056-057-062-063-064-067-068-021900-
SOUTH CENTRAL WISCONSIN

CITY           SKY/WX    TMP DP  RH WIND       PRES   REMARKS
REEDSBURG      FAIR      82  70  67 SW10G16   29.98F HX  86
BARABOO/DELLS  FAIR      83  66  55 SW13      29.99F HX  86
LONE ROCK      NOT AVBL
MINERAL POINT  FAIR      81  70  69 SW7       30.02R HX  84
MADISON        PTSUNNY   84  66  54 SW8       30.00S HX  86
6HR MIN TEMP:  70; 6HR MAX TEMP:  85;

MIDDLETON      FAIR      85  65  50 SW13      30.01S HX  87
WATERTOWN      SUNNY     85  72  65 SW10      30.00S HX  90
MONROE         FAIR      84  66  54 SW10G21   30.01F HX  86
JANESVILLE     PTSUNNY   88  68  51 SW12G17   30.00F HX  91
$$

WIZ051-052-058>065-066-070>072-021900-
SOUTHEAST WISCONSIN

CITY           SKY/WX    TMP DP  RH WIND       PRES   REMARKS
MILWAUKEE      PTSUNNY   88  68  51 SW8       30.00S HX  91
6HR MIN TEMP:  74; 6HR MAX TEMP:  88;

WAUKESHA       NOT AVBL
MILWAUKEE/TIMM SUNNY     88  64  45 W12       30.01S HX  89
RACINE         SUNNY     89  69  51 SW12      30.02S HX  93
6HR MIN TEMP:  72; 6HR MAX TEMP:  89;

BURLINGTON     SUNNY     85  68  57 SW6       30.01F HX  88
KENOSHA        SUNNY     89  70  53 SW13      30.01F HX  94
6HR MIN TEMP:  71; 6HR MAX TEMP:  89;

FOND DU LAC    MOSUNNY   85  69  58 SW14      29.99F HX  89
6HR MIN TEMP:  71; 6HR MAX TEMP:  86;

SHEBOYGAN      SUNNY     86  70  58 W12       29.99S HX  90
6HR MIN TEMP:  72; 6HR MAX TEMP:  87;

WEST BEND      SUNNY     86  64  48 SW10      30.01R HX  87
JUNEAU         SUNNY     83  70  65 SW12      30.02S HX  87
$$

LSZ147-162-021900-
LAKE SUPERIOR

STATION/POSITION TIME  TEMP    WIND        PRES    WAVE
                       AIR SEA DIR/SP/G            HT/PER
                 (UTC) (F)     (DEG/KT/KT) (MB)    (FT/S)
W MID LAKE BUOY  1650   60 55   CALM  /  2 1016.6F   0
DEVILS ISLAND    1700   64      40/  8/  9 1015.4F
PORT WING        1740   69     140/  6/ 23 1014.2F
SAXON HARBOR     1700   65        CALM     1015.9F
$$

LMZ867-665-643>646-021900-
LAKE MICHIGAN

STATION/POSITION TIME  TEMP    WIND        PRES    WAVE
                       AIR SEA DIR/SP/G            HT/PER
                 (UTC) (F)     (DEG/KT/KT) (MB)    (FT/S)
CHAMBERS ISLAND  1700   73     330/  1/  3 1014.9S
N MID LAKE BUOY  1650   66 67  310/  2/  2 1014.9F   1
NORTHPORT PIER   1700   70      CALM  /  2 1015.2R
SISTER BAY       1719   74     360/  5/  6   N/A
ALGOMA LAKESHORE 1729             CALM       N/A
KEWAUNEE LAKESHO 1700   63     170/  8/  9 1014.0F
SHEBOYGAN LAKESH 1700   76     170/ 12/ 14 1015.2F
PORT WASHINGTON  1740   70     190/  3/  9 1016.3S
ATWATER BUOY     1700   62     150/  4/  6 1017.3F
MILWAUKEE LAKESH 1710   66     140/  6/  8   N/A
S MID LAKE BUOY  1650   72 71  210/ 10/ 12 1016.0F   1
KENOSHA   LAKESH 1700   71     170/ 14/ 17 1015.6F
$$

TC  - TEMPERATURE IN CELSIUS
VSB - VISIBILITY IN STATUTE MILES
WCI - WIND CHILL INDEX
HX  - HEAT INDEX



USA.gov is the U.S. government's official web portal to all federal, state and local government web resources and services.